When you browse on this site, cookies collect data to enhance your experience and personalize the content and advertising you see.
Visit our Privacy Policy to learn more. By continuing to use the site, you agree to this use of cookies and data.
  • In Netherlands
  • List of Countries
  • For 7 days
  • Water Temperature
  • Satellite Maps
  • Weather Map
  • Weather Widgets
  • user-avatar
    Login

    Hourly Weather Troickoe

    Today, 24 April, Wednesday

    Time Temperature Precipitation Wind Pressure Humidity
    00:00 +8°C° 0 mm 3 mps 760 mmHg 51%
    01:00 +7°C° 0 mm 3 mps 760 mmHg 54%
    02:00 +7°C° 0 mm 3 mps 760 mmHg 56%
    03:00 +6°C° 0 mm 4 mps 759 mmHg 61%
    04:00 +7°C° 0 mm 3 mps 759 mmHg 62%
    05:00 +7°C° 0 mm 3 mps 759 mmHg 62%
    06:00 +7°C° 0 mm 3 mps 759 mmHg 63%
    07:00 +9°C° 0 mm 3 mps 759 mmHg 58%
    08:00 +12°C° 0 mm 3 mps 759 mmHg 54%
    09:00 +14°C° 0 mm 4 mps 759 mmHg 49%
    10:00 +17°C° 0 mm 4 mps 758 mmHg 45%
    11:00 +18°C° 0 mm 4 mps 758 mmHg 41%
    12:00 +19°C° 0 mm 4 mps 758 mmHg 37%
    13:00 +19°C° 0 mm 4 mps 758 mmHg 37%
    14:00 +19°C° 0 mm 3 mps 757 mmHg 38%
    15:00 +19°C° 0 mm 3 mps 757 mmHg 39%
    16:00 +18°C° 0 mm 3 mps 757 mmHg 44%
    17:00 +17°C° 0 mm 2 mps 757 mmHg 49%
    18:00 +17°C° 0 mm 2 mps 758 mmHg 54%
    19:00 +15°C° 0 mm 2 mps 758 mmHg 57%
    20:00 +13°C° 0 mm 3 mps 758 mmHg 60%
    21:00 +12°C° 0 mm 4 mps 758 mmHg 63%
    22:00 +11°C° 0.1 mm 4 mps 758 mmHg 65%
    23:00 +10°C° 0.1 mm 4 mps 759 mmHg 68%

    Tomorrow, 25 April, Thursday

    Time Temperature Precipitation Wind Pressure Humidity
    00:00 +10°C° 0.1 mm 4 mps 759 mmHg 70%
    01:00 +10°C° 0.2 mm 4 mps 759 mmHg 71%
    02:00 +10°C° 0.2 mm 4 mps 759 mmHg 72%
    03:00 +10°C° 0.2 mm 4 mps 759 mmHg 73%
    04:00 +10°C° 0.1 mm 4 mps 759 mmHg 75%
    05:00 +10°C° 0.1 mm 4 mps 759 mmHg 77%
    06:00 +10°C° 0.1 mm 3 mps 759 mmHg 78%
    07:00 +11°C° 0 mm 3 mps 759 mmHg 74%
    08:00 +13°C° 0 mm 3 mps 759 mmHg 70%
    09:00 +14°C° 0 mm 3 mps 759 mmHg 66%
    10:00 +16°C° 0.1 mm 3 mps 759 mmHg 60%
    11:00 +18°C° 0.1 mm 2 mps 758 mmHg 54%
    12:00 +20°C° 0.1 mm 1 mps 758 mmHg 48%
    13:00 +20°C° 0.1 mm 1 mps 758 mmHg 47%
    14:00 +20°C° 0.1 mm 1 mps 758 mmHg 46%
    15:00 +21°C° 0.1 mm 1 mps 758 mmHg 45%
    16:00 +20°C° 0.1 mm 1 mps 758 mmHg 49%
    17:00 +20°C° 0.1 mm 1 mps 758 mmHg 53%
    18:00 +19°C° 0.1 mm 1 mps 758 mmHg 57%
    19:00 +18°C° 0 mm 1 mps 758 mmHg 59%
    20:00 +15°C° 0 mm 1 mps 758 mmHg 62%
    21:00 +14°C° 0 mm 1 mps 759 mmHg 64%
    22:00 +13°C° 0 mm 1 mps 758 mmHg 66%
    23:00 +13°C° 0 mm 2 mps 758 mmHg 67%

    Day after tomorrow, 26 April, Friday

    Time Temperature Precipitation Wind Pressure Humidity
    00:00 +13°C° 0 mm 2 mps 758 mmHg 68%
    01:00 +12°C° 0 mm 2 mps 758 mmHg 67%
    02:00 +10°C° 0 mm 2 mps 758 mmHg 66%
    03:00 +10°C° 0 mm 2 mps 758 mmHg 65%
    04:00 +10°C° 0 mm 2 mps 758 mmHg 65%
    05:00 +11°C° 0 mm 1 mps 757 mmHg 65%
    06:00 +11°C° 0 mm 1 mps 757 mmHg 65%
    07:00 +13°C° 0 mm 1 mps 757 mmHg 59%
    08:00 +16°C° 0 mm 1 mps 757 mmHg 54%
    09:00 +17°C° 0 mm 0 mps 757 mmHg 49%
    10:00 +20°C° 0 mm 1 mps 756 mmHg 46%
    11:00 +20°C° 0 mm 2 mps 756 mmHg 44%
    12:00 +21°C° 0 mm 2 mps 756 mmHg 42%
    13:00 +21°C° 0 mm 2 mps 756 mmHg 41%
    14:00 +22°C° 0 mm 3 mps 755 mmHg 40%
    15:00 +22°C° 0 mm 3 mps 755 mmHg 39%
    16:00 +22°C° 0 mm 3 mps 755 mmHg 44%
    17:00 +21°C° 0 mm 3 mps 755 mmHg 48%
    18:00 +20°C° 0 mm 2 mps 755 mmHg 52%
    19:00 +18°C° 0 mm 3 mps 755 mmHg 54%
    20:00 +17°C° 0 mm 3 mps 755 mmHg 57%
    21:00 +14°C° 0 mm 3 mps 756 mmHg 60%
    22:00 +14°C° 0 mm 3 mps 756 mmHg 60%
    23:00 +13°C° 0 mm 3 mps 756 mmHg 60%

    27 April, Saturday

    Time Temperature Precipitation Wind Pressure Humidity
    00:00 +14°C° 0 mm 2 mps 755 mmHg 61%
    01:00 +13°C° 0 mm 2 mps 755 mmHg 61%
    02:00 +13°C° 0 mm 1 mps 755 mmHg 61%
    03:00 +12°C° 0 mm 1 mps 755 mmHg 61%
    04:00 +12°C° 0 mm 1 mps 755 mmHg 63%
    05:00 +12°C° 0 mm 1 mps 755 mmHg 66%
    06:00 +12°C° 0 mm 1 mps 755 mmHg 68%
    07:00 +14°C° 0 mm 1 mps 754 mmHg 62%
    08:00 +16°C° 0 mm 2 mps 754 mmHg 57%
    09:00 +18°C° 0 mm 2 mps 754 mmHg 51%
    10:00 +20°C° 0 mm 3 mps 753 mmHg 48%
    11:00 +21°C° 0 mm 3 mps 753 mmHg 45%
    12:00 +23°C° 0 mm 4 mps 753 mmHg 41%
    13:00 +23°C° 0 mm 4 mps 752 mmHg 40%
    14:00 +23°C° 0 mm 4 mps 752 mmHg 39%
    15:00 +23°C° 0 mm 5 mps 751 mmHg 38%
    16:00 +22°C° 0 mm 5 mps 751 mmHg 42%
    17:00 +21°C° 0 mm 4 mps 751 mmHg 46%
    18:00 +19°C° 0 mm 4 mps 751 mmHg 50%
    19:00 +17°C° 0 mm 4 mps 752 mmHg 52%
    20:00 +14°C° 0 mm 3 mps 752 mmHg 54%
    21:00 +12°C° 0 mm 3 mps 752 mmHg 56%
    22:00 +13°C° 0 mm 2 mps 752 mmHg 60%
    23:00 +12°C° 0 mm 2 mps 752 mmHg 65%

    28 April, Sunday

    Time Temperature Precipitation Wind Pressure Humidity
    00:00 +11°C° 0 mm 1 mps 752 mmHg 69%
    01:00 +11°C° 0 mm 1 mps 751 mmHg 72%
    02:00 +10°C° 0 mm 1 mps 751 mmHg 76%
    03:00 +9°C° 0 mm 0 mps 751 mmHg 79%
    04:00 +10°C° 0 mm 1 mps 751 mmHg 79%
    05:00 +10°C° 0 mm 1 mps 751 mmHg 80%
    06:00 +11°C° 0 mm 1 mps 750 mmHg 80%
    07:00 +13°C° 0 mm 1 mps 750 mmHg 72%
    08:00 +15°C° 0 mm 2 mps 750 mmHg 63%
    09:00 +17°C° 0 mm 2 mps 750 mmHg 54%
    10:00 +19°C° 0 mm 2 mps 749 mmHg 50%
    11:00 +20°C° 0 mm 2 mps 749 mmHg 46%
    12:00 +23°C° 0 mm 2 mps 749 mmHg 42%
    13:00 +24°C° 0 mm 2 mps 748 mmHg 41%
    14:00 +24°C° 0 mm 2 mps 748 mmHg 40%
    15:00 +25°C° 0 mm 2 mps 748 mmHg 39%
    16:00 +24°C° 0 mm 2 mps 748 mmHg 43%
    17:00 +23°C° 0 mm 2 mps 748 mmHg 47%
    18:00 +22°C° 0 mm 1 mps 748 mmHg 51%
    19:00 +20°C° 0.1 mm 1 mps 748 mmHg 53%
    20:00 +19°C° 0.1 mm 1 mps 749 mmHg 54%
    21:00 +16°C° 0.1 mm 1 mps 749 mmHg 56%
    22:00 +16°C° 0 mm 1 mps 749 mmHg 59%
    23:00 +15°C° 0 mm 2 mps 749 mmHg 61%

    29 April, Monday

    Time Temperature Precipitation Wind Pressure Humidity
    00:00 +15°C° 0 mm 2 mps 749 mmHg 64%
    01:00 +15°C° 0 mm 2 mps 749 mmHg 66%
    02:00 +14°C° 0 mm 2 mps 749 mmHg 69%
    03:00 +14°C° 0 mm 2 mps 749 mmHg 72%
    04:00 +14°C° 0 mm 2 mps 749 mmHg 72%
    05:00 +14°C° 0 mm 2 mps 749 mmHg 73%
    06:00 +14°C° 0 mm 2 mps 749 mmHg 73%
    07:00 +17°C° 0 mm 2 mps 749 mmHg 67%
    08:00 +19°C° 0 mm 2 mps 749 mmHg 61%
    09:00 +21°C° 0 mm 2 mps 749 mmHg 54%
    10:00 +23°C° 0 mm 2 mps 749 mmHg 51%
    11:00 +24°C° 0 mm 2 mps 748 mmHg 47%
    12:00 +26°C° 0 mm 2 mps 748 mmHg 43%
    13:00 +26°C° 0 mm 2 mps 748 mmHg 42%
    14:00 +26°C° 0 mm 2 mps 747 mmHg 40%
    15:00 +27°C° 0 mm 2 mps 747 mmHg 39%
    16:00 +26°C° 0 mm 2 mps 747 mmHg 43%
    17:00 +25°C° 0 mm 2 mps 747 mmHg 48%
    18:00 +23°C° 0 mm 2 mps 747 mmHg 52%
    19:00 +21°C° 0.1 mm 2 mps 748 mmHg 53%
    20:00 +21°C° 0.1 mm 1 mps 748 mmHg 54%
    21:00 +20°C° 0.1 mm 1 mps 748 mmHg 54%
    22:00 +18°C° 0.3 mm 2 mps 748 mmHg 63%
    23:00 +17°C° 0.3 mm 4 mps 748 mmHg 72%
    Show more